Find Starlink 11415

NORAD ID: 62592 Int'l Des: 2025-008 Owner: SPXS Country: US Constellation: starlink operational
別名: STARLINK-11415 [DTC] celestrak
LEOCIRCULAR

現在のビュー

3D地球を読み込み中...

About Starlink 11415

Starlink 11415 (NORAD 62592) is a starlink constellation satellite (v2 mini d2c) launched Jan 13, 2025 by SPXS of US. It operates in LEO, CIRCULAR orbit with a mass of 960.00 kg.

次回通過

Passes for default location (London). Set your location on the main map for personalized predictions.

高度履歴

Loading altitude history...

軌道要素

1 62592U 25008F 26263.08512985 .00168601 00000-0 12883-2 0 9992
2 62592 42.9983 34.7679 0001147 330.0215 30.0587 15.70889664 97793
Epoch: Sep 20, 2026 • Age: 33 hours

現在のステータス

高度 357.9 km
遠地点 / 近地点 N/A
速度 7.70 km/s
衛星直下点 39.48°N, 13.53°W
打ち上げ日 Jan 13, 2025
運用期間 1.6 years
タイプ internet

技術仕様

分類 Payload
質量 960.00 kg
乾燥質量 910.00 kg
長さ 0.30 m
スパン 29.00 m
形状 ? Box + pan
製造者 SPXS
バスタイプ Starlink V2MD
フェーズステータス In Orbit
所有者/国 SPXS/US

Most Searched